CDT,Max TemperatureF,Mean TemperatureF,Min TemperatureF,Max Dew PointF,MeanDew PointF,Min DewpointF,Max Humidity, Mean Humidity, Min Humidity, Max Sea Level PressureIn, Mean Sea Level PressureIn, Min Sea Level PressureIn, Max VisibilityMiles, Mean VisibilityMiles, Min VisibilityMiles, Max Wind SpeedMPH, Mean Wind SpeedMPH, Max Gust SpeedMPH,PrecipitationIn, CloudCover, Events, WindDirDegrees
2011-10-1,69,60,50,46,41,37,82,49,31,30.19,30.15,30.12,10,10,10,15,6,22,0.00,0,,4
2011-10-2,69,55,41,45,41,32,100,70,25,30.25,30.20,30.15,10,10,10,8,2,20,0.00,0,,353
2011-10-3,73,55,37,52,41,34,100,70,25,30.28,30.22,30.19,10,10,10,6,1,,0.00,0,,334
2011-10-4,78,60,42,52,45,37,100,68,24,30.30,30.23,30.18,10,10,7,6,1,,0.00,0,,39
2011-10-5,80,63,46,59,52,46,100,72,34,30.25,30.19,30.13,10,9,5,7,1,,0.00,0,,120
2011-10-6,82,66,50,59,54,50,100,71,32,30.24,30.18,30.14,10,9,1,8,2,,0.00,0,,108
2011-10-7,80,66,51,59,55,52,100,69,39,30.31,30.23,30.20,10,10,10,10,3,,0.00,0,,107
2011-10-8,80,68,57,59,57,54,88,66,45,30.31,30.24,30.18,10,10,10,14,5,22,0.00,0,,104
2011-10-9,78,66,55,59,56,52,94,66,44,30.23,30.17,30.09,10,10,10,14,6,18,0.00,1,,89
2011-10-10,78,68,57,63,60,55,94,73,54,30.12,30.04,29.96,10,10,10,12,5,17,0.00,4,Rain,65
2011-10-11,68,65,62,64,62,59,100,91,73,29.97,29.93,29.88,10,8,2,10,3,17,0.01,8,Rain,45
2011-10-12,71,66,62,63,62,61,100,89,69,29.90,29.84,29.74,10,9,2,6,0,,0.01,7,Rain,185
2011-10-13,75,65,55,63,59,54,100,83,50,29.81,29.74,29.71,10,9,1,10,2,18,0.29,4,Rain-Thunderstorm,286
2011-10-14,78,61,44,55,49,41,100,72,28,29.99,29.93,29.85,10,8,1,7,1,,0.00,0,,258
2011-10-15,78,63,48,54,48,43,100,67,29,30.13,30.08,30.01,10,10,10,7,1,,0.00,0,,24
2011-10-16,84,64,44,59,51,45,100,72,25,30.16,30.08,30.01,10,10,10,9,2,,0.00,0,,208
2011-10-17,84,68,51,63,56,50,100,74,35,30.01,29.93,29.82,10,10,7,7,1,,0.00,0,,221
2011-10-18,78,64,51,64,57,48,100,86,54,29.79,29.72,29.62,10,10,7,12,2,22,0.00,4,,253
2011-10-19,53,48,42,43,41,37,100,77,54,29.92,29.80,29.74,10,10,10,13,5,20,0.00,5,,279
2011-10-20,60,48,35,41,36,34,100,68,36,30.06,30.01,29.94,10,10,7,12,4,17,0.00,0,,265
2011-10-21,64,48,32,41,34,32,100,69,30,30.24,30.18,30.12,10,10,2,9,1,,0.00,0,,307
2011-10-22,69,50,32,45,37,32,100,69,28,30.23,30.16,30.09,10,10,3,7,0,,0.00,0,,36
2011-10-23,60,48,35,54,45,36,100,90,52,30.13,30.08,30.03,10,10,2,9,1,,0.16,4,Rain-Thunderstorm,140
2011-10-24,71,58,46,55,51,46,100,87,46,30.24,30.17,30.10,10,6,0,6,1,,0.01,4,Fog,349
2011-10-25,77,59,41,55,48,41,100,75,39,30.25,30.19,30.08,10,9,3,8,1,,0.00,0,,170
2011-10-26,78,61,44,59,52,45,100,78,39,30.09,30.03,29.93,10,9,0,10,1,,0.00,0,Fog,187
2011-10-27,77,65,53,63,55,52,100,84,57,29.98,29.92,29.89,10,9,5,10,2,17,0.00,6,Rain,282
2011-10-28,53,50,46,50,47,41,100,88,76,30.14,30.03,29.94,10,9,3,9,3,16,0.27,8,Rain,357
2011-10-29,62,47,32,41,35,30,100,72,30,30.25,30.18,30.13,10,9,2,10,2,,0.00,0,,334
2011-10-30,62,46,30,41,34,30,100,74,32,30.29,30.21,30.17,10,9,5,9,1,,0.00,0,,141
2011-10-31,69,50,32,41,36,32,100,68,26,30.22,30.19,30.15,10,9,5,8,1,,0.00,0,,274